TimeMDT,TemperatureF,Dew PointF,Humidity,Sea Level PressureIn,VisibilityMPH,Wind Direction,Wind SpeedMPH,Gust SpeedMPH,PrecipitationIn,Events,Conditions,WindDirDegrees,DateUTC
12:53 AM,72.0,46.0,40,29.98,10.0,SE,10.4,-,N/A,,Clear,140,2013-08-22 06:53:00
1:53 AM,66.9,48.0,51,30.00,10.0,SE,5.8,-,N/A,,Clear,130,2013-08-22 07:53:00
2:53 AM,69.1,48.0,47,29.99,10.0,East,8.1,-,N/A,,Partly Cloudy,100,2013-08-22 08:53:00
3:53 AM,64.9,50.0,58,30.03,10.0,South,3.5,-,N/A,,Overcast,180,2013-08-22 09:53:00
4:53 AM,66.0,48.9,54,30.04,10.0,SSE,4.6,-,N/A,,Mostly Cloudy,150,2013-08-22 10:53:00
5:53 AM,64.0,55.0,73,30.04,10.0,ESE,9.2,-,0.01,Rain,Light Rain,120,2013-08-22 11:53:00
6:53 AM,63.0,55.9,78,30.07,10.0,SE,8.1,-,0.00,,Mostly Cloudy,140,2013-08-22 12:53:00
7:53 AM,64.0,55.9,75,30.08,10.0,SSE,8.1,-,N/A,,Partly Cloudy,150,2013-08-22 13:53:00
8:53 AM,64.9,55.9,73,30.09,10.0,South,4.6,-,N/A,,Clear,170,2013-08-22 14:53:00
9:53 AM,72.0,55.0,55,30.06,10.0,SSE,4.6,-,0.01,,Clear,160,2013-08-22 15:53:00
10:53 AM,75.9,51.1,42,30.04,6.0,Calm,Calm,-,N/A,,Haze,0,2013-08-22 16:53:00
11:23 AM,78.8,51.8,39,30.29,4.0,NNW,5.8,-,N/A,,Haze,330,2013-08-22 17:23:00
11:53 AM,80.1,50.0,35,30.01,3.0,Variable,5.8,-,N/A,,Haze,0,2013-08-22 17:53:00
12:00 PM,80.6,48.2,32,30.27,2.5,WNW,5.8,-,N/A,,Haze,300,2013-08-22 18:00:00
12:07 PM,80.6,48.2,32,30.27,10.0,North,3.5,-,N/A,,Partly Cloudy,360,2013-08-22 18:07:00
12:16 PM,80.6,50.0,34,30.26,2.5,NNE,5.8,-,N/A,,Haze,20,2013-08-22 18:16:00
12:24 PM,82.4,48.2,30,30.26,10.0,North,3.5,-,N/A,,Partly Cloudy,10,2013-08-22 18:24:00
12:53 PM,82.0,50.0,33,29.98,10.0,North,6.9,-,N/A,,Clear,360,2013-08-22 18:53:00
1:53 PM,84.0,48.9,29,29.96,8.0,WNW,9.2,-,N/A,,Clear,300,2013-08-22 19:53:00
2:18 PM,86.0,46.4,25,30.22,5.0,North,10.4,-,N/A,,Haze,350,2013-08-22 20:18:00
2:53 PM,84.9,46.0,26,29.93,10.0,NNW,9.2,-,N/A,,Clear,340,2013-08-22 20:53:00
3:53 PM,84.0,46.0,26,29.92,10.0,NW,5.8,-,N/A,,Clear,310,2013-08-22 21:53:00
4:53 PM,84.0,46.0,26,29.90,10.0,Calm,Calm,-,N/A,,Clear,0,2013-08-22 22:53:00
5:53 PM,80.1,54.0,40,29.92,10.0,SSW,6.9,-,N/A,,Partly Cloudy,210,2013-08-22 23:53:00
6:44 PM,80.6,50.0,34,30.17,10.0,SSW,8.1,-,N/A,Thunderstorm,Partly Cloudy,200,2013-08-23 00:44:00
6:53 PM,80.1,50.0,35,29.93,9.0,SSE,12.7,21.9,N/A,,Mostly Cloudy,150,2013-08-23 00:53:00
7:29 PM,73.4,53.6,50,30.17,10.0,South,9.2,-,N/A,Thunderstorm,Partly Cloudy,180,2013-08-23 01:29:00
7:44 PM,73.4,53.6,50,30.17,10.0,South,9.2,-,N/A,,Clear,170,2013-08-23 01:44:00
7:53 PM,73.0,54.0,51,29.95,10.0,South,11.5,-,N/A,,Clear,170,2013-08-23 01:53:00
8:53 PM,70.0,55.0,59,29.96,10.0,ESE,11.5,-,N/A,,Partly Cloudy,120,2013-08-23 02:53:00
9:53 PM,69.1,53.1,57,29.96,10.0,SE,10.4,-,N/A,,Clear,130,2013-08-23 03:53:00
10:53 PM,66.9,54.0,63,29.96,10.0,SE,10.4,-,N/A,,Clear,140,2013-08-23 04:53:00
11:53 PM,64.9,54.0,68,29.95,10.0,ESE,8.1,-,N/A,,Clear,110,2013-08-23 05:53:00